Snowfall_Accumulation
nan nan nan nan nan nan nan nan nan nan nan nan nan nan nan nan nan nan nan nan nan nan nan nan nan nan 0.0 0.0 0.0 0.0 nan nan 0.0 0.0 0.0 0.0 0.0 0.0 0.1 0.0 0.0 0.1 0.0 0.0 0.0 0.0 0.0
nan nan nan nan nan nan nan nan nan nan nan nan nan nan nan nan nan nan nan nan nan nan nan nan nan nan 0.0 0.0 0.0 0.0 0.0 0.0 0.0 0.0 0.0 0.0 0.0 0.0 0.0 0.0 0.0 0.0 0.0 0.0 0.0 0.0 0.0
nan nan nan nan nan nan nan nan nan nan nan nan nan nan nan nan nan nan nan nan nan nan nan nan nan 0.0 0.0 0.0 0.0 0.0 0.0 0.0 0.0 0.0 0.0 0.0 0.0 0.0 0.0 0.0 0.0 0.0 0.0 0.0 0.0 0.0 0.0
nan nan nan nan nan nan nan nan nan nan nan nan nan nan nan nan nan nan nan nan nan nan nan nan nan 0.0 0.0 0.0 0.0 0.0 0.0 0.0 0.0 0.0 0.0 0.0 0.0 0.0 0.0 0.0 0.0 0.0 0.1 1.0 0.0 0.0 0.0
nan nan nan nan nan nan nan nan nan nan nan nan nan nan nan nan nan nan nan nan nan nan nan nan 0.0 0.0 0.0 nan 0.0 0.0 0.0 0.0 0.0 0.0 0.0 0.0 0.0 0.0 0.0 0.9 1.3 0.2 1.3 0.6 0.0 0.0 0.0
nan nan nan nan nan nan nan nan nan nan nan nan nan nan nan nan nan nan nan nan nan nan 0.0 0.0 0.0 0.0 0.0 0.0 0.0 0.0 0.0 0.0 0.0 0.0 0.0 0.0 0.0 1.8 1.7 3.2 6.3 0.5 1.4 0.1 0.0 0.0 0.0
nan nan nan nan nan nan nan nan nan nan nan nan nan nan nan nan nan nan 0.0 0.0 0.0 0.0 0.0 0.0 0.0 0.0 0.0 0.0 0.0 0.0 0.0 0.0 0.0 0.0 0.4 0.0 4.1 4.6 0.4 0.1 0.1 0.1 0.1 0.1 0.0 0.0 0.0
nan nan nan nan nan nan nan nan nan nan nan nan nan nan nan nan nan nan 0.0 0.0 0.0 0.0 0.1 0.0 0.0 0.0 0.0 0.0 0.0 0.0 0.0 0.0 0.0 0.1 0.1 0.8 3.7 0.1 0.0 0.1 0.2 0.2 0.5 0.8 0.0 0.0 0.0
nan nan nan nan nan nan nan nan nan nan nan nan nan nan nan nan nan 0.0 0.0 0.0 0.0 0.0 0.0 0.0 0.0 0.0 0.0 0.0 0.0 0.0 0.0 0.0 0.0 0.1 0.1 1.8 0.0 0.1 0.2 0.3 1.7 0.5 0.9 0.2 0.1 0.0 0.0
nan nan nan nan nan nan nan nan nan nan nan nan nan nan nan nan nan 0.0 0.0 0.0 0.0 0.0 0.2 0.0 0.0 0.0 0.0 0.0 0.0 0.0 0.0 0.0 0.0 0.1 0.0 0.0 0.1 0.1 0.4 0.4 0.6 3.4 0.0 0.0 0.0 1.4 2.5
nan nan nan nan nan nan nan nan nan nan nan nan nan nan nan nan 0.0 0.0 0.0 0.0 0.0 0.0 4.3 0.0 0.0 0.0 0.0 0.0 0.0 0.0 0.0 0.0 0.3 0.0 2.6 0.2 0.0 0.1 0.9 0.1 0.2 2.6 0.0 0.3 0.1 0.3 1.2
nan nan nan nan nan nan nan nan nan nan nan nan nan nan nan 0.0 0.0 0.0 0.0 0.0 0.0 0.3 6.2 0.0 0.0 0.0 0.0 0.0 0.0 0.0 0.0 0.0 0.0 0.0 0.0 0.1 0.0 0.3 0.2 0.3 0.2 0.0 2.2 0.9 1.9 1.6 10.6
nan nan nan nan nan nan nan nan nan nan nan nan nan nan nan 0.0 0.0 0.0 0.0 0.0 0.4 2.3 0.0 0.0 0.0 0.0 0.0 0.0 0.0 0.0 0.1 1.0 3.7 7.4 0.4 0.0 0.2 0.4 0.3 0.5 0.0 4.0 5.1 15.0 16.8 18.7 5.7
nan nan nan nan nan nan nan nan nan nan nan nan nan nan nan 0.0 0.0 0.0 0.0 0.0 1.3 0.0 0.3 0.0 0.0 0.0 0.1 0.0 0.0 0.0 0.1 2.1 0.2 1.4 5.1 1.9 3.5 1.0 0.2 2.5 4.6 5.3 6.1 8.8 8.1 8.3 1.9
nan nan nan nan nan nan nan nan nan nan nan nan nan 0.0 0.0 0.0 0.0 0.0 0.0 1.8 0.8 0.4 0.2 0.1 0.0 0.0 0.0 0.0 0.2 0.1 0.1 2.4 2.1 1.5 14.8 6.7 0.5 0.0 1.1 1.7 1.4 3.9 7.6 1.0 3.3 1.0 0.9
nan nan nan nan nan nan nan nan nan nan nan nan 0.0 0.0 0.0 0.0 0.0 0.0 0.4 nan 0.1 0.0 0.1 0.0 0.4 0.2 1.1 0.1 0.5 1.1 0.3 2.3 1.1 1.1 2.3 2.6 3.9 0.0 0.1 0.7 0.8 3.4 0.9 5.9 4.9 7.4 2.7
nan nan nan nan nan nan nan nan nan nan nan nan 0.0 0.0 0.0 0.0 0.0 0.0 1.6 0.8 0.0 0.0 0.0 0.2 0.5 0.8 0.6 1.5 0.2 0.3 0.2 0.0 0.2 0.1 0.1 2.4 5.0 0.4 0.1 2.4 6.8 2.7 3.9 6.2 3.7 3.1 5.6
nan nan nan nan nan nan nan nan nan nan nan nan 0.0 0.4 0.0 0.0 0.0 0.0 0.5 0.9 nan 0.0 0.0 0.0 0.0 0.1 0.7 0.4 0.6 0.3 0.4 0.3 0.0 0.5 0.7 0.7 2.6 3.5 2.3 2.4 1.4 3.1 4.3 6.5 5.1 8.2 5.3
nan nan nan nan nan nan nan nan nan nan nan 0.0 0.7 0.1 0.0 0.0 1.0 0.3 0.1 0.0 0.1 0.1 0.0 0.2 0.1 0.1 0.2 0.7 5.1 0.1 0.4 0.0 0.0 0.7 4.6 0.4 1.9 2.9 2.7 3.3 0.9 2.7 3.2 3.6 3.5 9.4 6.7
nan nan nan nan nan nan nan nan nan nan nan 0.0 0.5 1.0 0.0 0.0 0.0 0.8 1.4 0.1 0.2 0.0 0.1 0.1 0.2 0.1 0.9 0.4 0.1 2.3 1.2 0.5 0.3 0.2 nan nan 1.7 3.4 3.3 7.7 5.6 5.3 3.7 1.7 3.1 4.7 6.6
nan nan nan nan nan nan nan nan nan nan nan 0.0 0.6 1.0 0.1 0.9 0.0 0.5 0.8 0.1 0.2 1.5 0.1 0.1 0.3 0.2 3.0 4.4 0.4 0.5 0.4 0.8 0.1 nan 0.6 2.3 2.5 0.9 1.2 1.6 1.1 2.5 2.8 3.7 3.0 5.2 5.0
nan nan nan nan nan nan nan nan nan nan nan 0.0 1.2 2.8 1.6 0.8 0.0 0.1 0.2 0.5 0.3 0.6 1.4 0.3 1.0 0.1 0.3 2.9 0.8 4.0 1.5 0.1 0.5 1.2 3.0 1.9 2.2 2.6 3.8 2.0 1.3 2.6 2.0 2.8 3.5 3.3 2.6
nan nan nan nan nan nan nan nan nan nan nan 0.0 0.0 0.2 1.5 nan 0.1 0.9 0.3 0.4 0.7 0.5 0.0 0.0 0.0 0.7 0.1 0.0 0.0 0.0 0.0 0.3 1.9 2.8 1.3 4.7 4.3 4.6 4.9 3.1 3.6 3.3 7.1 5.1 8.1 8.0 7.6
nan nan nan nan nan nan nan nan nan nan nan 0.0 0.0 0.3 7.4 4.0 0.3 0.2 0.2 0.1 0.3 0.1 1.3 0.0 0.0 0.1 0.0 0.0 0.0 0.0 0.0 1.5 1.4 1.3 0.8 2.0 3.5 3.1 8.4 5.5 13.1 7.7 1.8 4.3 5.8 8.1 7.7
nan nan nan nan nan nan nan nan nan nan nan 0.0 0.0 0.4 4.8 7.9 0.1 0.0 0.2 0.2 0.0 0.0 0.0 0.0 0.0 0.0 0.0 0.0 0.1 0.2 1.0 0.2 0.3 0.2 2.0 3.0 2.4 5.9 10.8 7.1 7.0 4.0 5.9 7.5 7.4 8.0 7.1
nan nan nan nan nan nan nan nan nan nan nan 0.0 0.0 0.0 0.8 9.7 0.2 0.1 0.3 0.0 0.8 0.3 0.1 0.0 0.0 0.0 0.0 0.0 0.7 4.6 2.6 1.4 0.8 0.4 0.1 0.1 1.7 4.7 8.6 9.5 8.6 6.7 6.9 7.5 3.3 6.7 3.3
nan nan nan nan nan nan nan nan nan nan nan 0.0 0.0 0.0 0.2 10.7 0.1 0.0 1.2 2.0 0.4 0.5 1.2 0.0 0.0 0.0 0.0 0.4 2.7 2.8 2.8 0.1 2.3 3.1 2.4 1.1 1.9 7.3 5.7 10.1 5.9 5.2 3.4 4.2 8.8 5.6 3.0
nan nan nan nan nan nan nan nan nan nan nan 0.0 0.0 0.0 0.1 3.6 0.4 0.0 0.0 0.3 0.8 0.7 3.7 0.0 0.9 0.1 0.3 1.8 3.6 1.3 1.8 2.3 1.8 1.3 5.1 3.5 4.3 4.8 5.2 11.0 10.4 1.2 0.3 6.2 8.0 2.5 4.2
nan nan nan nan nan nan nan nan nan nan nan nan 0.0 0.0 0.0 0.3 0.4 0.0 0.0 0.0 0.0 0.1 1.9 0.4 0.4 0.4 0.9 2.0 3.2 4.2 3.7 3.0 3.3 3.6 1.4 7.6 5.0 10.2 6.4 9.2 5.7 3.1 5.3 3.8 3.6 1.9 1.6
Water_Equivalent
nan nan nan nan nan nan nan nan nan nan nan nan nan nan nan nan nan nan nan nan nan nan nan nan nan nan 0.00 0.00 0.00 0.00 nan nan 0.00 0.00 0.00 0.00 0.00 0.00 0.01 0.00 0.00 0.02 0.01 0.00 0.00 0.00 0.00
nan nan nan nan nan nan nan nan nan nan nan nan nan nan nan nan nan nan nan nan nan nan nan nan nan nan 0.00 0.00 0.00 0.00 0.00 0.00 0.00 0.00 0.00 0.00 0.00 0.00 0.00 0.00 0.01 0.00 0.00 0.00 0.00 0.00 0.00
nan nan nan nan nan nan nan nan nan nan nan nan nan nan nan nan nan nan nan nan nan nan nan nan nan 0.00 0.00 0.00 0.00 0.00 0.00 0.00 0.00 0.00 0.00 0.00 0.00 0.00 0.00 0.00 0.00 0.00 0.00 0.00 0.00 0.00 0.01
nan nan nan nan nan nan nan nan nan nan nan nan nan nan nan nan nan nan nan nan nan nan nan nan nan 0.00 0.00 0.00 0.00 0.00 0.00 0.00 0.00 0.00 0.00 0.00 0.00 0.00 0.00 0.00 0.00 0.00 0.02 0.19 0.00 0.00 0.00
nan nan nan nan nan nan nan nan nan nan nan nan nan nan nan nan nan nan nan nan nan nan nan nan 0.00 0.00 0.00 nan 0.00 0.00 0.00 0.00 0.00 0.00 0.00 0.00 0.00 0.00 0.00 0.16 0.16 0.03 0.19 0.12 0.00 0.00 0.00
nan nan nan nan nan nan nan nan nan nan nan nan nan nan nan nan nan nan nan nan nan nan 0.00 0.00 0.00 0.00 0.00 0.00 0.00 0.00 0.00 0.00 0.00 0.00 0.00 0.00 0.01 0.36 0.29 0.45 0.62 0.07 0.19 0.01 0.00 0.00 0.00
nan nan nan nan nan nan nan nan nan nan nan nan nan nan nan nan nan nan 0.00 0.00 0.00 0.00 0.00 0.00 0.00 0.00 0.00 0.00 0.00 0.00 0.00 0.00 0.00 0.00 0.08 0.00 0.59 0.58 0.06 0.03 0.02 0.01 0.02 0.01 0.00 0.00 0.00
nan nan nan nan nan nan nan nan nan nan nan nan nan nan nan nan nan nan 0.00 0.00 0.00 0.00 0.03 0.00 0.00 0.00 0.00 0.00 0.00 0.00 0.00 0.00 0.01 0.02 0.02 0.13 0.47 0.02 0.00 0.02 0.04 0.03 0.07 0.10 0.00 0.00 0.00
nan nan nan nan nan nan nan nan nan nan nan nan nan nan nan nan nan 0.00 0.00 0.00 0.00 0.00 0.01 0.00 0.00 0.00 0.00 0.00 0.00 0.00 0.00 0.00 0.00 0.01 0.02 0.24 0.00 0.02 0.03 0.05 0.29 0.08 0.12 0.03 0.02 0.00 0.00
nan nan nan nan nan nan nan nan nan nan nan nan nan nan nan nan nan 0.00 0.00 0.00 0.00 0.00 0.05 0.00 0.01 0.00 0.00 0.00 0.00 0.00 0.00 0.00 0.00 0.01 0.01 0.01 0.02 0.03 0.06 0.07 0.10 0.44 0.00 0.00 0.00 0.19 0.33
nan nan nan nan nan nan nan nan nan nan nan nan nan nan nan nan 0.00 0.00 0.00 0.00 0.00 0.00 1.00 0.00 0.00 0.00 0.00 0.00 0.00 0.00 0.00 0.00 0.06 0.01 0.36 0.03 0.00 0.01 0.12 0.02 0.03 0.41 0.01 0.06 0.02 0.03 0.16
nan nan nan nan nan nan nan nan nan nan nan nan nan nan nan 0.00 0.00 0.00 0.00 0.00 0.00 0.07 1.74 0.00 0.00 0.00 0.00 0.00 0.00 0.00 0.00 0.00 0.00 0.00 0.00 0.01 0.00 0.05 0.03 0.06 0.04 0.00 0.35 0.13 0.26 0.17 1.07
nan nan nan nan nan nan nan nan nan nan nan nan nan nan nan 0.00 0.00 0.00 0.00 0.00 0.11 0.45 0.00 0.00 0.00 0.00 0.00 0.00 0.00 0.00 0.02 0.17 0.44 0.85 0.05 0.00 0.03 0.07 0.05 0.08 0.01 0.63 0.60 1.71 1.90 2.16 0.63
nan nan nan nan nan nan nan nan nan nan nan nan nan nan nan 0.00 0.00 0.00 0.00 0.00 0.26 0.01 0.04 0.00 0.00 0.00 0.02 0.00 0.00 0.00 0.02 0.31 0.03 0.20 0.58 0.27 0.55 0.15 0.03 0.33 0.54 0.80 0.81 1.22 0.77 0.94 0.23
nan nan nan nan nan nan nan nan nan nan nan nan nan 0.00 0.00 0.00 0.00 0.00 0.00 0.38 0.16 0.06 0.04 0.02 0.00 0.00 0.00 0.00 0.04 0.01 0.02 0.40 0.35 0.23 1.24 0.63 0.08 0.00 0.18 0.25 0.22 0.47 0.89 0.16 0.35 0.13 0.20
nan nan nan nan nan nan nan nan nan nan nan nan 0.00 0.00 0.00 0.00 0.00 0.00 0.11 nan 0.02 0.00 0.03 0.00 0.06 0.03 0.12 0.01 0.08 0.16 0.06 0.44 0.19 0.20 0.43 0.32 0.33 0.00 0.01 0.11 0.14 0.45 0.12 0.69 0.61 0.79 0.24
nan nan nan nan nan nan nan nan nan nan nan nan 0.00 0.00 0.00 0.00 0.00 0.00 0.43 0.15 0.00 0.00 0.00 0.03 0.08 0.12 0.08 0.18 0.03 0.04 0.04 0.01 0.04 0.02 0.02 0.34 0.55 0.07 0.01 0.24 0.62 0.28 0.35 0.57 0.35 0.37 0.60
nan nan nan nan nan nan nan nan nan nan nan nan 0.00 0.08 0.00 0.00 0.00 0.01 0.17 0.16 nan 0.00 0.00 0.00 0.00 0.02 0.09 0.06 0.08 0.06 0.06 0.05 0.00 0.10 0.10 0.11 0.31 0.36 0.22 0.28 0.19 0.36 0.27 0.47 0.49 0.67 0.55
nan nan nan nan nan nan nan nan nan nan nan 0.00 0.26 0.02 0.00 0.00 0.22 0.05 0.02 0.00 0.02 0.03 0.00 0.04 0.03 0.02 0.05 0.10 0.56 0.02 0.11 0.00 0.01 0.13 0.56 0.07 0.27 0.31 0.33 0.41 0.13 0.31 0.32 0.28 0.26 0.76 0.50
nan nan nan nan nan nan nan nan nan nan nan 0.00 0.15 0.20 0.00 0.00 0.00 0.17 0.25 0.02 0.04 0.00 0.03 0.01 0.05 0.03 0.14 0.07 0.03 0.39 0.20 0.13 0.08 0.05 nan nan 0.23 0.33 0.25 0.65 0.61 0.52 0.36 0.18 0.28 0.48 0.44
nan nan nan nan nan nan nan nan nan nan nan 0.00 0.21 0.20 0.02 0.17 0.00 0.13 0.15 0.03 0.05 0.22 0.02 0.02 0.07 0.04 0.41 0.51 0.05 0.08 0.08 0.19 0.03 nan 0.13 0.35 0.26 0.11 0.12 0.15 0.11 0.23 0.27 0.30 0.23 0.31 0.40
nan nan nan nan nan nan nan nan nan nan nan 0.00 0.33 0.53 0.30 0.15 0.00 0.03 0.03 0.09 0.05 0.12 0.23 0.06 0.15 0.03 0.06 0.36 0.12 0.46 0.22 0.02 0.07 0.26 0.46 0.30 0.28 0.30 0.39 0.19 0.11 0.21 0.18 0.25 0.23 0.19 0.17
nan nan nan nan nan nan nan nan nan nan nan 0.00 0.00 0.06 0.40 nan 0.01 0.13 0.05 0.07 0.11 0.09 0.00 0.00 0.01 0.12 0.02 0.01 0.00 0.00 0.00 0.05 0.26 0.33 0.16 0.59 0.60 0.57 0.51 0.32 0.39 0.32 0.51 0.41 0.57 0.60 0.57
nan nan nan nan nan nan nan nan nan nan nan 0.00 0.00 0.10 1.38 0.58 0.06 0.03 0.03 0.02 0.05 0.01 0.18 0.00 0.00 0.02 0.00 0.00 0.00 0.00 0.01 0.22 0.20 0.19 0.12 0.25 0.43 0.38 1.23 0.72 1.43 0.76 0.20 0.43 0.45 0.60 0.58
nan nan nan nan nan nan nan nan nan nan nan 0.00 0.00 0.14 1.30 1.11 0.02 0.00 0.04 0.03 0.00 0.00 0.00 0.00 0.00 0.00 0.00 0.00 0.02 0.05 0.19 0.04 0.05 0.03 0.25 0.38 0.29 0.75 1.30 0.83 0.89 0.49 0.58 0.73 0.70 0.65 0.53
nan nan nan nan nan nan nan nan nan nan nan 0.00 0.00 0.00 0.30 1.58 0.05 0.02 0.04 0.00 0.14 0.06 0.01 0.00 0.00 0.00 0.00 0.00 0.14 0.61 0.29 0.19 0.11 0.05 0.02 0.02 0.26 0.70 1.16 1.06 0.75 0.56 0.68 0.81 0.33 0.54 0.31
nan nan nan nan nan nan nan nan nan nan nan 0.00 0.00 0.00 0.07 1.90 0.03 0.00 0.20 0.31 0.06 0.07 0.16 0.00 0.00 0.01 0.00 0.09 0.44 0.40 0.36 0.03 0.28 0.38 0.26 0.20 0.30 0.87 0.62 1.10 0.55 0.46 0.33 0.54 0.71 0.47 0.33
nan nan nan nan nan nan nan nan nan nan nan 0.00 0.00 0.00 0.03 1.08 0.11 0.00 0.00 0.05 0.13 0.11 0.50 0.01 0.14 0.02 0.06 0.30 0.50 0.19 0.24 0.30 0.25 0.16 0.61 0.43 0.52 0.55 0.59 1.27 1.15 0.13 0.04 0.48 0.69 0.26 0.40
nan nan nan nan nan nan nan nan nan nan nan nan 0.00 0.00 0.00 0.12 0.12 0.00 0.00 0.00 0.00 0.01 0.31 0.06 0.06 0.06 0.17 0.34 0.54 0.61 0.51 0.41 0.42 0.35 0.20 0.85 0.62 1.06 0.71 0.86 0.60 0.38 0.56 0.45 0.44 0.21 0.17
SL_Ratio
nan nan nan nan nan nan nan nan nan nan nan nan nan nan nan nan nan nan nan nan nan nan nan nan nan nan nan nan nan nan nan nan nan nan nan nan nan nan 4.5 nan nan 4.5 3.9 nan nan nan nan
nan nan nan nan nan nan nan nan nan nan nan nan nan nan nan nan nan nan nan nan nan nan nan nan nan nan nan nan nan nan nan nan nan nan nan nan nan nan nan nan 4.4 5.0 nan nan nan nan nan
nan nan nan nan nan nan nan nan nan nan nan nan nan nan nan nan nan nan nan nan nan nan nan nan nan nan nan nan nan nan nan nan nan nan nan nan nan nan nan nan nan nan 5.0 nan nan nan 5.0
nan nan nan nan nan nan nan nan nan nan nan nan nan nan nan nan nan nan nan nan nan nan nan nan nan nan nan nan nan nan nan nan nan nan nan nan nan nan 2.5 nan nan nan 5.6 5.3 nan nan nan
nan nan nan nan nan nan nan nan nan nan nan nan nan nan nan nan nan nan nan nan nan nan nan nan nan nan nan nan nan nan nan nan nan nan nan nan nan nan 5.0 5.8 8.5 6.0 6.8 4.5 nan nan nan
nan nan nan nan nan nan nan nan nan nan nan nan nan nan nan nan nan nan nan nan nan nan nan nan nan nan nan nan nan nan nan nan nan nan nan nan 4.3 5.0 5.8 7.2 10.3 7.4 7.3 5.0 5.0 nan nan
nan nan nan nan nan nan nan nan nan nan nan nan nan nan nan nan nan nan nan nan nan nan nan nan nan nan nan nan nan nan nan nan nan nan 5.4 nan 7.0 8.0 5.8 5.2 5.4 5.7 7.1 7.1 nan nan nan
nan nan nan nan nan nan nan nan nan nan nan nan nan nan nan nan nan nan nan nan nan nan 5.2 nan nan nan nan nan nan nan nan nan 4.5 5.5 5.0 6.6 8.0 5.3 10.0 5.6 5.2 5.3 7.1 7.7 7.5 nan 5.0
nan nan nan nan nan nan nan nan nan nan nan nan nan nan nan nan nan nan nan nan nan nan 5.0 nan nan nan nan nan nan nan nan nan 5.0 5.3 5.8 7.4 6.7 4.2 5.3 5.8 6.0 6.0 7.3 5.9 5.9 nan nan
nan nan nan nan nan nan nan nan nan nan nan nan nan nan nan nan nan nan nan nan nan nan 4.3 nan 3.6 nan nan nan nan nan nan nan nan 5.9 6.1 5.6 5.0 4.9 6.2 6.5 5.5 7.6 5.0 5.0 nan 7.6 7.6
nan nan nan nan nan nan nan nan nan nan nan nan nan nan nan nan nan nan nan nan nan nan 4.3 nan nan nan nan 5.0 nan nan nan nan 5.3 5.5 7.2 6.3 5.0 7.6 7.2 5.8 6.5 6.4 4.6 5.2 5.8 7.5 7.3
nan nan nan nan nan nan nan nan nan nan nan nan nan nan nan nan nan nan nan nan nan 4.2 3.6 nan nan nan 5.0 nan nan nan nan nan 2.5 5.0 nan 7.5 nan 6.1 6.0 5.2 5.7 5.8 6.3 7.0 7.2 9.3 9.9
nan nan nan nan nan nan nan nan nan nan nan nan nan nan nan nan nan nan nan nan 3.7 5.0 nan nan nan nan nan nan nan nan 5.3 6.0 8.4 8.6 8.4 nan 6.2 5.6 5.6 6.7 5.0 6.3 8.5 8.8 8.8 8.7 9.0
nan nan nan nan nan nan nan nan nan nan nan nan nan nan nan nan nan nan nan 5.0 5.1 5.6 6.0 nan nan nan 5.3 nan nan 4.0 4.6 6.8 4.9 7.2 8.8 6.9 6.3 6.6 5.4 7.7 8.4 6.6 7.5 7.2 10.4 8.9 8.0
nan nan nan nan nan nan nan nan nan nan nan nan nan nan nan nan nan nan nan 4.7 4.9 6.6 5.6 5.4 nan 5.0 7.5 5.0 4.6 5.0 5.3 6.1 6.0 6.6 11.9 10.5 5.9 5.0 6.2 6.7 6.2 8.3 8.6 6.3 9.4 7.3 4.4
nan nan nan nan nan nan nan nan nan nan nan nan nan nan nan nan nan nan 3.8 nan 4.9 nan 4.3 nan 6.8 6.0 8.9 7.7 6.4 7.0 5.6 5.3 5.7 5.5 5.4 7.9 11.8 nan 5.5 6.2 5.9 7.4 8.1 8.5 8.1 9.3 11.2
nan nan nan nan nan nan nan nan nan nan nan nan nan nan nan nan nan nan 3.8 5.5 nan nan nan 5.1 5.8 6.5 7.2 8.5 6.9 7.4 5.5 5.4 4.3 5.0 5.2 7.0 9.1 6.1 6.1 9.8 11.0 9.5 11.0 10.8 10.4 8.4 9.4
nan nan nan nan nan nan nan nan nan nan nan nan nan 5.1 nan nan 3.3 2.8 3.1 5.3 nan nan nan nan nan 5.4 7.2 7.0 7.7 5.6 7.2 6.2 5.0 4.7 7.8 6.0 8.6 9.5 10.7 8.8 7.5 8.6 15.9 14.0 10.4 12.2 9.7
nan nan nan nan nan nan nan nan nan nan nan nan 2.7 3.4 nan nan 4.7 6.0 4.1 4.0 3.2 4.2 4.0 4.1 4.1 4.3 3.4 6.7 9.0 4.3 4.0 1.7 3.1 5.9 8.2 6.1 7.1 9.5 8.3 8.1 6.7 9.0 10.1 12.7 13.5 12.4 13.6
nan nan nan nan nan nan nan nan nan nan nan nan 2.9 5.2 nan nan nan 4.8 5.5 4.7 4.6 nan 3.6 3.9 4.6 3.8 6.4 5.4 4.1 5.9 6.0 4.1 3.0 4.5 nan nan 7.5 10.4 12.9 11.8 9.2 10.1 10.2 9.4 11.1 9.9 14.9
nan nan nan nan nan nan nan nan nan nan nan nan 2.9 5.3 5.6 5.1 nan 4.0 5.0 4.3 5.1 6.6 4.4 4.1 4.7 5.4 7.2 8.8 6.7 6.5 4.7 4.3 3.9 nan 4.8 6.6 9.6 8.6 10.8 10.6 9.7 11.1 10.4 12.2 12.9 16.9 12.8
nan nan nan nan nan nan nan nan nan nan nan nan 3.6 5.3 5.5 5.1 nan 5.0 4.4 5.9 6.5 4.9 6.2 5.2 6.2 4.7 5.1 8.0 6.8 8.7 6.9 5.0 6.4 4.6 6.5 6.5 8.0 8.7 9.7 10.6 11.6 12.6 10.8 11.2 15.0 17.0 15.7
nan nan nan nan nan nan nan nan nan nan nan nan 2.1 2.8 3.7 nan 5.7 7.0 5.4 6.0 6.2 5.9 5.0 nan 4.4 5.4 5.0 4.4 nan nan nan 5.9 7.3 8.5 8.2 8.1 7.2 8.1 9.8 9.5 9.4 10.2 13.9 12.6 14.2 13.4 13.3
nan nan nan nan nan nan nan nan nan nan nan nan nan 2.6 5.3 6.8 5.4 5.7 6.0 5.1 5.6 5.6 7.2 nan nan 5.4 nan nan nan nan 5.6 6.8 6.7 7.0 6.7 8.1 8.2 8.1 6.8 7.6 9.2 10.1 9.0 10.1 13.0 13.6 13.4
nan nan nan nan nan nan nan nan nan nan nan nan nan 2.6 3.7 7.1 5.2 nan 5.6 5.7 nan nan nan nan nan nan nan nan 4.4 5.1 4.9 4.8 5.3 5.7 7.9 7.9 8.3 7.8 8.3 8.5 7.9 8.3 10.2 10.3 10.6 12.4 13.4
nan nan nan nan nan nan nan nan nan nan nan nan nan nan 2.6 6.1 4.6 4.8 6.2 7.1 6.0 5.0 4.8 nan nan nan nan 5.0 4.8 7.6 8.9 7.2 7.5 6.8 5.0 5.0 6.5 6.8 7.4 9.0 11.5 12.0 10.1 9.3 10.1 12.4 10.6
nan nan nan nan nan nan nan nan nan nan nan nan nan nan 2.9 5.6 3.9 10.0 5.9 6.5 6.6 6.6 7.7 nan 7.5 4.4 nan 4.0 6.2 7.1 7.6 5.6 8.2 8.3 9.1 5.6 6.2 8.4 9.2 9.2 10.7 11.2 10.3 7.8 12.3 12.0 9.0
nan nan nan nan nan nan nan nan nan nan nan nan nan nan 2.6 3.3 3.1 10.0 5.0 6.5 6.3 6.7 7.3 6.7 6.7 5.0 4.9 6.0 7.1 6.6 7.5 7.5 7.4 8.3 8.3 8.1 8.2 8.7 8.8 8.6 9.1 9.4 8.7 13.0 11.6 9.7 10.4
nan nan nan nan nan nan nan nan nan nan nan nan nan nan nan 2.6 3.7 nan nan nan 5.0 5.2 6.2 6.1 6.9 6.1 5.4 5.7 5.8 6.8 7.3 7.5 7.7 10.2 7.3 8.9 8.1 9.6 9.1 10.7 9.5 8.1 9.4 8.5 8.2 9.0 9.6